Time,TemperatureF,DewpointF,PressureIn,WindDirection,WindDirectionDegrees,WindSpeedMPH,WindSpeedGustMPH,Humidity,HourlyPrecipIn,Conditions,Clouds,dailyrainin,SolarRadiationWatts/m^2,SoftwareType,DateUTC
2013-06-04 00:22:00,41.0,24.0,-100.00,ESE,109,2.0,6.0,51,-99.99,,,0.00,0.000000,,2013-06-04 06:22:00,
2013-06-04 00:32:00,41.0,24.0,-100.00,ESE,109,2.0,6.0,51,-99.99,,,0.00,0.000000,,2013-06-04 06:32:00,
2013-06-04 00:42:00,41.0,24.0,-100.00,ESE,109,2.0,6.0,51,-99.99,,,0.00,0.000000,,2013-06-04 06:42:00,
2013-06-04 00:52:00,41.0,24.0,-100.00,ESE,109,2.0,6.0,51,-99.99,,,0.00,0.000000,,2013-06-04 06:52:00,
2013-06-04 01:22:00,42.0,23.0,-100.00,ESE,118,4.0,7.0,47,0.00,,,0.00,0.000000,,2013-06-04 07:22:00,
2013-06-04 01:32:00,42.0,23.0,-100.00,ESE,118,4.0,7.0,47,0.00,,,0.00,0.000000,,2013-06-04 07:32:00,
2013-06-04 01:42:00,42.0,23.0,-100.00,ESE,118,4.0,7.0,47,0.00,,,0.00,0.000000,,2013-06-04 07:42:00,
2013-06-04 01:52:00,42.0,23.0,-100.00,ESE,118,4.0,7.0,47,0.00,,,0.00,0.000000,,2013-06-04 07:52:00,
2013-06-04 02:22:00,39.0,22.0,-100.00,SE,126,4.0,7.0,50,0.00,,,0.00,0.000000,,2013-06-04 08:22:00,
2013-06-04 02:32:00,39.0,22.0,-100.00,SE,126,4.0,7.0,50,0.00,,,0.00,0.000000,,2013-06-04 08:32:00,
2013-06-04 02:42:00,39.0,22.0,-100.00,SE,126,4.0,7.0,50,0.00,,,0.00,0.000000,,2013-06-04 08:42:00,
2013-06-04 02:52:00,39.0,22.0,-100.00,SE,126,4.0,7.0,50,0.00,,,0.00,0.000000,,2013-06-04 08:52:00,
2013-06-04 03:12:00,37.0,23.0,-100.00,ESE,118,2.0,4.0,56,0.00,,,0.00,0.000000,,2013-06-04 09:12:00,
2013-06-04 03:22:00,37.0,23.0,-100.00,ESE,118,2.0,4.0,56,0.00,,,0.00,0.000000,,2013-06-04 09:22:00,
2013-06-04 03:33:00,37.0,23.0,-100.00,ESE,118,2.0,4.0,56,0.00,,,0.00,0.000000,,2013-06-04 09:33:00,
2013-06-04 03:43:00,37.0,23.0,-100.00,ESE,118,2.0,4.0,56,0.00,,,0.00,0.000000,,2013-06-04 09:43:00,
2013-06-04 03:53:00,37.0,23.0,-100.00,ESE,118,2.0,4.0,56,0.00,,,0.00,0.000000,,2013-06-04 09:53:00,
2013-06-04 04:23:00,35.0,22.0,-100.00,East,90,1.0,4.0,58,0.00,,,0.00,0.000000,,2013-06-04 10:23:00,
2013-06-04 04:33:00,35.0,22.0,-100.00,East,90,1.0,4.0,58,0.00,,,0.00,0.000000,,2013-06-04 10:33:00,
2013-06-04 04:42:00,35.0,22.0,-100.00,East,90,1.0,4.0,58,0.00,,,0.00,0.000000,,2013-06-04 10:42:00,
2013-06-04 04:52:00,35.0,22.0,-100.00,East,90,1.0,4.0,58,0.00,,,0.00,0.000000,,2013-06-04 10:52:00,
2013-06-04 05:22:00,33.0,21.0,-100.00,SE,132,2.0,6.0,60,0.00,,,0.00,0.000000,,2013-06-04 11:22:00,
2013-06-04 05:32:00,33.0,21.0,-100.00,SE,132,2.0,6.0,60,0.00,,,0.00,0.000000,,2013-06-04 11:32:00,
2013-06-04 05:42:00,33.0,21.0,-100.00,SE,132,2.0,6.0,60,0.00,,,0.00,0.000000,,2013-06-04 11:42:00,
2013-06-04 05:52:00,33.0,21.0,-100.00,SE,132,2.0,6.0,60,0.00,,,0.00,0.000000,,2013-06-04 11:52:00,
2013-06-04 06:22:00,33.0,21.0,-100.00,East,81,3.0,6.0,61,0.00,,,0.00,2.000000,,2013-06-04 12:22:00,
2013-06-04 06:32:00,33.0,21.0,-100.00,East,81,3.0,6.0,61,0.00,,,0.00,2.000000,,2013-06-04 12:32:00,
2013-06-04 06:42:00,33.0,21.0,-100.00,East,81,3.0,6.0,61,0.00,,,0.00,2.000000,,2013-06-04 12:42:00,
2013-06-04 06:52:00,33.0,21.0,-100.00,East,81,3.0,6.0,61,0.00,,,0.00,2.000000,,2013-06-04 12:52:00,
2013-06-04 07:22:00,35.0,23.0,-100.00,East,97,4.0,8.0,62,0.00,,,0.00,14.000000,,2013-06-04 13:22:00,
2013-06-04 07:32:00,35.0,23.0,-100.00,East,97,4.0,8.0,62,0.00,,,0.00,14.000000,,2013-06-04 13:32:00,
2013-06-04 07:42:00,35.0,23.0,-100.00,East,97,4.0,8.0,62,0.00,,,0.00,14.000000,,2013-06-04 13:42:00,
2013-06-04 07:52:00,35.0,23.0,-100.00,East,97,4.0,8.0,62,0.00,,,0.00,14.000000,,2013-06-04 13:52:00,
2013-06-04 08:22:00,46.0,23.0,-100.00,East,91,2.0,7.0,40,0.00,,,0.00,102.000000,,2013-06-04 14:22:00,
2013-06-04 08:32:00,46.0,23.0,-100.00,East,91,2.0,7.0,40,0.00,,,0.00,102.000000,,2013-06-04 14:32:00,
2013-06-04 08:42:00,46.0,23.0,-100.00,East,91,2.0,7.0,40,0.00,,,0.00,102.000000,,2013-06-04 14:42:00,
2013-06-04 08:52:00,46.0,23.0,-100.00,East,91,2.0,7.0,40,0.00,,,0.00,102.000000,,2013-06-04 14:52:00,
2013-06-04 09:22:00,59.0,16.0,-100.00,North,351,5.0,9.0,18,0.00,,,0.00,481.000000,,2013-06-04 15:22:00,
2013-06-04 09:33:00,59.0,16.0,-100.00,North,351,5.0,9.0,18,0.00,,,0.00,481.000000,,2013-06-04 15:33:00,
2013-06-04 09:42:00,59.0,16.0,-100.00,North,351,5.0,9.0,18,0.00,,,0.00,481.000000,,2013-06-04 15:42:00,
2013-06-04 09:53:00,59.0,16.0,-100.00,North,351,5.0,9.0,18,0.00,,,0.00,481.000000,,2013-06-04 15:53:00,
2013-06-04 10:23:00,62.0,15.0,-100.00,NNW,327,8.0,16.0,16,0.00,,,0.00,648.000000,,2013-06-04 16:23:00,
2013-06-04 10:33:00,62.0,15.0,-100.00,NNW,327,8.0,16.0,16,0.00,,,0.00,648.000000,,2013-06-04 16:33:00,
2013-06-04 10:42:00,62.0,15.0,-100.00,NNW,327,8.0,16.0,16,0.00,,,0.00,648.000000,,2013-06-04 16:42:00,
2013-06-04 10:52:00,62.0,15.0,-100.00,NNW,327,8.0,16.0,16,0.00,,,0.00,648.000000,,2013-06-04 16:52:00,
2013-06-04 11:23:00,62.0,20.0,-100.00,WNW,296,10.0,21.0,20,0.00,,,0.00,653.000000,,2013-06-04 17:23:00,
2013-06-04 11:33:00,62.0,20.0,-100.00,WNW,296,10.0,21.0,20,0.00,,,0.00,653.000000,,2013-06-04 17:33:00,
2013-06-04 11:42:00,62.0,20.0,-100.00,WNW,296,10.0,21.0,20,0.00,,,0.00,653.000000,,2013-06-04 17:42:00,
2013-06-04 11:52:00,62.0,20.0,-100.00,WNW,296,10.0,21.0,20,0.00,,,0.00,653.000000,,2013-06-04 17:52:00,
2013-06-04 12:22:00,63.0,22.0,-100.00,NW,310,11.0,24.0,21,0.00,,,0.00,562.000000,,2013-06-04 18:22:00,
2013-06-04 12:32:00,63.0,22.0,-100.00,NW,310,11.0,24.0,21,0.00,,,0.00,562.000000,,2013-06-04 18:32:00,
2013-06-04 12:42:00,63.0,22.0,-100.00,NW,310,11.0,24.0,21,0.00,,,0.00,562.000000,,2013-06-04 18:42:00,
2013-06-04 12:52:00,63.0,22.0,-100.00,NW,310,11.0,24.0,21,0.00,,,0.00,562.000000,,2013-06-04 18:52:00,
2013-06-04 13:22:00,62.0,20.0,-100.00,NW,307,10.0,23.0,20,0.00,,,0.00,551.000000,,2013-06-04 19:22:00,
2013-06-04 13:32:00,62.0,20.0,-100.00,NW,307,10.0,23.0,20,0.00,,,0.00,551.000000,,2013-06-04 19:32:00,
2013-06-04 13:42:00,62.0,20.0,-100.00,NW,307,10.0,23.0,20,0.00,,,0.00,551.000000,,2013-06-04 19:42:00,
2013-06-04 13:52:00,62.0,20.0,-100.00,NW,307,10.0,23.0,20,0.00,,,0.00,551.000000,,2013-06-04 19:52:00,
2013-06-04 14:22:00,63.0,21.0,-100.00,West,260,10.0,20.0,20,0.00,,,0.00,640.000000,,2013-06-04 20:22:00,
2013-06-04 14:32:00,63.0,21.0,-100.00,West,260,10.0,20.0,20,0.00,,,0.00,640.000000,,2013-06-04 20:32:00,
2013-06-04 14:42:00,63.0,21.0,-100.00,West,260,10.0,20.0,20,0.00,,,0.00,640.000000,,2013-06-04 20:42:00,
2013-06-04 14:52:00,63.0,21.0,-100.00,West,260,10.0,20.0,20,0.00,,,0.00,640.000000,,2013-06-04 20:52:00,
2013-06-04 15:22:00,59.0,28.0,-100.00,NW,319,5.0,24.0,30,0.00,,,0.00,276.000000,,2013-06-04 21:22:00,
2013-06-04 15:33:00,59.0,28.0,-100.00,NW,319,5.0,24.0,30,0.00,,,0.00,276.000000,,2013-06-04 21:33:00,
2013-06-04 15:42:00,59.0,28.0,-100.00,NW,319,5.0,24.0,30,0.00,,,0.00,276.000000,,2013-06-04 21:42:00,
2013-06-04 15:52:00,59.0,28.0,-100.00,NW,319,5.0,24.0,30,0.00,,,0.00,276.000000,,2013-06-04 21:52:00,
2013-06-04 16:22:00,55.0,33.0,-100.00,NW,308,4.0,22.0,44,0.02,,,0.02,172.000000,,2013-06-04 22:22:00,
2013-06-04 16:32:00,55.0,33.0,-100.00,NW,308,4.0,22.0,44,0.02,,,0.02,172.000000,,2013-06-04 22:32:00,
2013-06-04 16:42:00,55.0,33.0,-100.00,NW,308,4.0,22.0,44,0.02,,,0.02,172.000000,,2013-06-04 22:42:00,
2013-06-04 16:52:00,55.0,33.0,-100.00,NW,308,4.0,22.0,44,0.02,,,0.02,172.000000,,2013-06-04 22:52:00,
2013-06-04 17:22:00,60.0,31.0,-100.00,NNW,329,4.0,14.0,33,0.00,,,0.02,432.000000,,2013-06-04 23:22:00,
2013-06-04 17:32:00,60.0,31.0,-100.00,NNW,329,4.0,14.0,33,0.00,,,0.02,432.000000,,2013-06-04 23:32:00,
2013-06-04 17:42:00,60.0,31.0,-100.00,NNW,329,4.0,14.0,33,0.00,,,0.02,432.000000,,2013-06-04 23:42:00,
2013-06-04 17:52:00,60.0,31.0,-100.00,NNW,329,4.0,14.0,33,0.00,,,0.02,432.000000,,2013-06-04 23:52:00,
2013-06-04 18:22:00,61.0,28.0,-100.00,NNW,332,3.0,13.0,28,0.00,,,-99.99,403.000000,,2013-06-05 00:22:00,
2013-06-04 18:32:00,61.0,28.0,-100.00,NNW,332,3.0,13.0,28,0.00,,,-99.99,403.000000,,2013-06-05 00:32:00,
2013-06-04 18:42:00,61.0,28.0,-100.00,NNW,332,3.0,13.0,28,0.00,,,-99.99,403.000000,,2013-06-05 00:42:00,
2013-06-04 18:52:00,61.0,28.0,-100.00,NNW,332,3.0,13.0,28,0.00,,,-99.99,403.000000,,2013-06-05 00:52:00,
2013-06-04 19:22:00,62.0,31.0,-100.00,NNE,25,3.0,24.0,31,0.00,,,0.02,262.000000,,2013-06-05 01:22:00,
2013-06-04 19:32:00,62.0,31.0,-100.00,NNE,25,3.0,24.0,31,0.00,,,0.02,262.000000,,2013-06-05 01:32:00,
2013-06-04 19:42:00,62.0,31.0,-100.00,NNE,25,3.0,24.0,31,0.00,,,0.02,262.000000,,2013-06-05 01:42:00,
2013-06-04 19:52:00,62.0,31.0,-100.00,NNE,25,3.0,24.0,31,0.00,,,0.02,262.000000,,2013-06-05 01:52:00,
2013-06-04 20:22:00,55.0,32.0,-100.00,SE,146,4.0,12.0,42,0.00,,,0.02,100.000000,,2013-06-05 02:22:00,
2013-06-04 20:32:00,55.0,32.0,-100.00,SE,146,4.0,12.0,42,0.00,,,0.02,100.000000,,2013-06-05 02:32:00,
2013-06-04 20:42:00,55.0,32.0,-100.00,SE,146,4.0,12.0,42,0.00,,,0.02,100.000000,,2013-06-05 02:42:00,
2013-06-04 20:52:00,55.0,32.0,-100.00,SE,146,4.0,12.0,42,0.00,,,0.02,100.000000,,2013-06-05 02:52:00,
2013-06-04 21:22:00,52.0,32.0,-100.00,South,184,3.0,16.0,46,0.00,,,0.02,4.000000,,2013-06-05 03:22:00,
2013-06-04 21:33:00,52.0,32.0,-100.00,South,184,3.0,16.0,46,0.00,,,0.02,4.000000,,2013-06-05 03:33:00,
2013-06-04 21:43:00,52.0,32.0,-100.00,South,184,3.0,16.0,46,0.00,,,0.02,4.000000,,2013-06-05 03:43:00,
2013-06-04 21:53:00,52.0,32.0,-100.00,South,184,3.0,16.0,46,0.00,,,0.02,4.000000,,2013-06-05 03:53:00,
2013-06-04 22:23:00,50.0,33.0,-100.00,WSW,251,4.0,18.0,51,0.00,,,0.02,0.000000,,2013-06-05 04:23:00,
2013-06-04 22:33:00,50.0,33.0,-100.00,WSW,251,4.0,18.0,51,0.00,,,0.02,0.000000,,2013-06-05 04:33:00,
2013-06-04 22:42:00,50.0,33.0,-100.00,WSW,251,4.0,18.0,51,0.00,,,0.02,0.000000,,2013-06-05 04:42:00,
2013-06-04 22:53:00,50.0,33.0,-100.00,WSW,251,4.0,18.0,51,0.00,,,0.02,0.000000,,2013-06-05 04:53:00,
2013-06-04 23:22:00,44.0,38.0,-100.00,SSE,149,3.0,20.0,78,0.01,,,-99.99,0.000000,,2013-06-05 05:22:00,
2013-06-04 23:32:00,44.0,38.0,-100.00,SSE,149,3.0,20.0,78,0.01,,,-99.99,0.000000,,2013-06-05 05:32:00,
2013-06-04 23:42:00,44.0,38.0,-100.00,SSE,149,3.0,20.0,78,0.01,,,-99.99,0.000000,,2013-06-05 05:42:00,
2013-06-04 23:52:00,44.0,38.0,-100.00,SSE,149,3.0,20.0,78,0.01,,,-99.99,0.000000,,2013-06-05 05:52:00,